www.pogodaiklimat.ru

Погода и климат >> Архив погоды >> Иран >> Shiraz


ПОГОДА в Shiraz

  • Прогноз погоды в Shiraz
  • Монитор погоды в Shiraz
  • Климат города

АРХИВ ПОГОДЫ в Shiraz

Время (UTC), дата Ветер
(напр.,м/с)
 
Видим.   Явления Облачность Т
(С)
Тd
(С)
f
(%)
Тe
(С)
Тes
(С)
Комфортность P
(гПа)
Po
(гПа)
Тmin
(С)
Tmax
(С)
R
(мм)
R24
(мм)
S
(см)
21 18.06 СЗ 2 10 км ясно +27.6 0.0 17 +25 +25 комфорт 994.3 844.9
00 19.06 З 3 12 км ясно +26.2 -3.4 14 +24 +24 комфорт 994.8 845.1
03 19.06 штиль 0 10 км ясно +22.0 +1.8 26 +22 +24 комфорт 997.6 846.0 +19.4
06 19.06 нст 1 12 км ясно +31.6 +4.4 18 +29 +47 жарко 996.7 846.6
09 19.06 нст 3 10 км ясно +36.8 -0.3 10 +33 +51 опасность
солнечного
удара
995.2 845.7
12 19.06 З 7 12 км ясно +37.2 -2.8 8 +33 +36 жарко 994.4 844.7
15 19.06 З 4 10 км ясно +34.6 -3.0 9 +31 +31 жарко 996.6 845.1 +38.4
18 19.06 СЗ 3 10 км ясно +30.2 -12.5 5 +26 +26 жарко 997.2 846.6
21 19.06 СЗ 2 10 км ясно +28.2 -13.8 6 +24 +24 комфорт 996.5 846.7
00 20.06 штиль 0 10 км ясно +23.6 -6.8 13 +22 +22 комфорт 997.3 846.5
03 20.06 штиль 0 12 км ясно +22.2 +0.1 23 +22 +24 комфорт 1000.0 848.1 +17.2
06 20.06 штиль 0 12 км ясно +32.4 -7.4 7 +28 +49 жарко 999.4 848.7
09 20.06 ЮВ 2 12 км ясно +36.6 -12.1 4 +32 +54 опасность
солнечного
удара
997.7 847.7
12 20.06 штиль 0 12 км ясно +38.4 -10.9 4 +34 +48 очень
жарко
996.8 846.3
15 20.06 З 4 12 км ясно +35.6 -16.3 3 +31 +31 жарко 998.2 846.5 +39.4
18 20.06 СЗ 2 12 км ясно +30.6 -7.9 8 +27 +27 жарко 998.2 847.8
21 20.06 штиль 0 12 км ясно +24.8 -1.0 18 +23 +23 комфорт 998.4 847.7
00 21.06 СЗ 2 12 км ясно +24.6 -4.0 15 +23 +23 комфорт 997.9 847.6
03 21.06 СВ 2 12 км ясно +23.2 +1.4 24 +22 +24 комфорт 1000.0 848.6 +20.2
06 21.06 СВ 2 12 км ясно +31.6 -4.5 9 +28 +43 жарко 999.9 849.1
09 21.06 штиль 0 12 км ясно +38.2 -10.4 4 +34 +63 опасность
солнечного
удара
997.7 847.3
12 21.06 Ю 5 12 км ясно +38.6 -9.9 4 +34 +39 очень
жарко
996.4 846.3
15 21.06 ЮЗ 5 12 км ясно +35.4 -9.9 5 +31 +31 жарко 998.0 846.6 +39.2
18 21.06 З 3 12 км ясно +31.4 -10.1 6 +27 +27 жарко 998.0 847.6
21 21.06 СЗ 2 12 км ясно +29.0 -6.3 10 +26 +26 жарко 996.5 847.3
00 22.06 штиль 0 12 км ясно +21.2 -2.7 20 +20 +20 997.4 846.5
03 22.06 штиль 0 12 км ясно +23.0 +0.3 22 +22 +25 комфорт 998.8 847.4 +18.4
06 22.06 штиль 0 12 км ясно +32.4 -2.0 11 +29 +50 жарко 997.4 847.4
09 22.06 нст 2 12 км ясно +38.0 -13.3 3 +33 +55 опасность
солнечного
удара
995.6 846.4
12 22.06 ЮЗ 7 12 км ясно +36.8 -10.9 4 +32 +35 жарко 996.8 845.4
15 22.06 З 4 12 км ясно +35.2 -9.2 5 +31 +31 жарко 996.7 845.4 +38.8
18 22.06 штиль 0 12 км ясно +31.0 -10.3 6 +27 +27 жарко 996.5 846.4
21 22.06 С 2 12 км ясно +25.4 -1.2 17 +24 +24 комфорт 996.1 846.2
00 23.06 штиль 0 12 км ясно +24.0 -2.8 17 +22 +22 комфорт 996.1 845.6
03 23.06 нст 1 12 км ясно +22.6 +3.4 28 +22 +25 комфорт 998.0 846.7 +18.6
06 23.06 нст 2 12 км ясно +33.0 -3.1 10 +29 +45 жарко 997.1 847.2
09 23.06 В 2 15 км ясно +37.0 -8.4 5 +32 +54 опасность
солнечного
удара
996.2 845.9
12 23.06 Ю 6 15 км ясно +37.4 -12.8 4 +33 +37 жарко 994.7 844.4
15 23.06 Ю 4 12 км ясно +34.2 -9.3 6 +30 +30 жарко 996.1 844.6 +38.6
18 23.06 штиль 0 12 км ясно +26.0 -5.0 13 +23 +23 комфорт 997.5 846.3
21 23.06 штиль 0 12 км ясно +21.0 +1.9 28 +21 +21 комфорт 997.2 846.0
00 24.06 З 2 12 км ясно +21.6 +4.6 33 +22 +22 комфорт 996.7 845.9
03 24.06 штиль 0 12 км ясно +21.0 +5.3 36 +21 +24 комфорт 999.0 847.0 +16.0
06 24.06 штиль 0 12 км ясно +32.8 -7.1 7 +29 +49 жарко 998.7 847.3
09 24.06 В 3 12 км ясно +36.4 -15.3 3 +32 +50 жарко 998.6 846.8
12 24.06 В 3 15 км ясно +38.2 -22.4 2 +33 +42 жарко 996.3 845.3
15 24.06 ЮВ 4 15 км ясно +34.6 -12.2 4 +30 +30 жарко 997.8 845.7 +39.0
18 24.06 штиль 0 15 км ясно +27.0 -5.1 12 +24 +24 комфорт 999.1 847.9
21 24.06 штиль 0 15 км ясно +21.4 -0.1 24 +21 +21 комфорт 998.8 847.3
00 25.06 З 2 15 км ясно +22.4 +3.7 29 +22 +22 комфорт 997.7 847.1
03 25.06 штиль 0 15 км ясно +23.6 +5.7 31 +24 +26 комфорт 999.5 848.2 +16.8
06 25.06 штиль 0 12 км ясно +32.2 -8.2 7 +28 +49 жарко 999.9 848.4
09 25.06 В 3 12 км ясно +37.0 -18.3 2 +32 +50 жарко 999.0 847.3
12 25.06 В 2 10 км ясно +39.0 -15.0 3 +34 +45 очень
жарко
996.1 845.5
15 25.06 нст 1 10 км ясно +36.8 -5.2 7 +33 +33 жарко 995.0 844.5 +40.2
18 25.06 З 2 12 км ясно +31.0 -0.5 13 +28 +28 жарко 996.1 846.2

 

Местоположение метеостанции Shiraz (Иран): широта 29.53 долгота 52.53 высота над уровнем моря 1481 м.

В архиве по умолчанию представлена погода в Shiraz за последнюю неделю. Архивные данные за месяц целиком и за предыдущие месяцы, начиная с января 2011 года, Вы можете получить, выбрав интересующий диапазон дат из раскрывающегося списка и нажав кнопку "Ввод!".


*Определитесь, кто Вы:
робот инопланетянин человек

Внимание! Время в таблицах - всемирное. Для получения местного времени необходимо прибавить поправку, которая в Shiraz равна 3.5 ч.

Смотрите также архив погоды в соседних городах и на ближайших метеорологических станциях:

Погода в Fasa (Иран) (128 км)
Погода в Yasuj (Иран) (156 км)
Погода в Bushehr (Иран) (175 км)
Погода в Bushehr Airport (Иран) (176 км)
Погода в Abadeh (Иран) (184 км)
Погода в Gach Saran (Иран) (197 км)
Погода в Bandar Deyr (Иран) (198 км)
Погода в Khark (Иран) (216 км)
Погода в Omidieh (Иран) (308 км)
Погода в Sirjan (Иран) (309 км)

Пояснения к столбцам:

Ветер - указаны скорость ветра в м/с - средняя за 10 мин, порывы в срок и между сроками (в фигурных скобках) и направление, откуда дует ветер: С - северный, СВ - северо-восточный, В - восточный, ЮВ - юго-восточный, Ю - южный, ЮЗ - юго-западный, З - западный, СЗ - северо-западный.
Видимость - горизонтальная дальность видимости в метрах или километрах. При видимости от 1 до 10 км при отсутствии осадков обычно наблюдается дымка, при ухудшении видимости до 1 км и менее - туман. В сухую погоду видимость может ухудшаться дымом, пылью или мглою.
Явления - указаны атмосферные явления, наблюдавшиеся в срок или в последний час перед сроком; фигурными скобками обозначены явления, наблюдавшиеся между сроками (за 1-3 часа до срока); квадратными скобками обозначены град или гололедные отложения с указанием их диаметра в мм.
Облачность - указаны через наклонную черту общая и нижняя облачность в баллах и высота нижней границы облаков в метрах; квадратными скобками обозначены формы облаков: Ci - перистые, Cs - перисто-слоистые, Cc - перисто-кучевые, Ac - высококучевые, As - высокослоистые, Sc - слоисто-кучевые, Ns - слоисто-дождевые, Cu - кучевые, Cb - кучево-дождевые. Подробнее классификацию облаков см. в Атласе облаков (PDF).
T - Температура воздуха - температура, измеренная на высоте 2 м над землей.
Td - Температура точки росы - температура, при понижении до которой содержащийся в воздухе водяной пар достигнет насыщения.
f - Относительная влажность воздуха - влажноcть воздуха, измеренная на высоте 2 м над землей.
Te - Эффективная температура - температура, которую ощущает одетый по сезону человек в тени. Характеристика душности погоды. При расчете учитывается влияние влажности воздуха и скорости ветра на теплоощущения человека.
Tes - Эффективная температура на солнце - температура, которую ощущает человек, с поправкой на солнечный нагрев. Характеристика знойности погоды. Зависит от высоты солнца над горизонтом, облачности и скорости ветра. Ночью, в пасмурную погоду, а также при ветре 12 м/с и более поправка равна нулю.
P - Атмосферное давление - приведенное к уровню моря атмосферное давление.
Po - Атмосферное давление - измеренное на уровне метеостанции атмосферное давление.
Tmin - Минимальная температура - минимум температуры воздуха на высоте 2 м над землей.
Tmax - Максимальная температура - максимум температуры воздуха на высоте 2 м над землей.
R - Количество осадков - Количество выпавших осадков за период времени, мм. При наведении курсора мыши на число - период времени, за который выпало указанное количество осадков.
R24 - Количество осадков - Количество выпавших осадков за 24 часа, мм.
S - Снежный покров - Высота снежного покрова, см. При наведении курсора мыши на число - состояние снежного покрова и степень покрытия местности в баллах.